User: anonymous   Login
Location: Unspecified
(0.0000°N, 0.0000°E)
Time: 01:36:39
(UTC+00:00)
Language:

Vanguard 1 - Orbit

View from above orbital plane
View from above orbital plane
View from above satellite
View from above satellite

Ground track
Ground track

The orbit data is extracted from the following two-line orbital elements,

1     5U 58002B   19199.92255023 +.00000026 +00000-0 +14582-4 0  9999
2     5 034.2533 178.7120 1842933 287.0511 053.6997 10.84764250168929
Epoch (UTC): 18 July 2019 22:08:28
Eccentricity: 0.1842933
inclination: 34.2533°
perigee height: 653 km
apogee height: 3830 km
right ascension of ascending node: 178.7120°
argument of perigee: 287.0511°
revolutions per day: 10.84764250
mean anomaly at epoch: 53.6997°
orbit number at epoch: 16892

The dashed part of the orbit path shows where the satellite is in the earth's shadow,  

DLR